Zurück zum Katalog

COSMOS 2251 DEB

AktivLEO
NORAD 38068·DEBRIS·🇷🇺 Russia

Gestartet Jun 16, 1993 von Plesetsk Cosmodrome

Loading…

Nächste Überflüge (nächste 24 Stunden)

TLE

VeraltetSource: Space-Track

Epoche: Sep 6, 2026, 05:00 UTC

1 38068U 93036BSA 26249.20854977  .00000282  00000-0  10508-3 0  9990
2 38068  74.0221 176.6250 0026751 205.8243 154.1576 14.36336959704868

Verfolge COSMOS 2251 DEB in Echtzeit mit AllMySat

Download on the App Store